Regional Weather Roundup
Issued by NWS

Home | Current Version | Previous Version | Text Only | Print | Product List | Glossary On
Versions: 1 2 3 4 5 6 7 8 9 10 11 12 13 14 15 16 17 18 19 20 21 22 23 24 25 26 27 28 29 30 31 32 33 34 35 36 37 38 39 40 41 42 43 44 45 46 47 48 49 50
000
ASUS46 KSEW 280010
RWRWA

WASHINGTON REGIONAL WEATHER ROUNDUP
NATIONAL WEATHER SERVICE SEATTLE WA
500 PM PDT FRI MAR 27 2015

NOTE:"FAIR" INDICATES FEW OR NO CLOUDS BELOW 12,000 FEET WITH NO
SIGNIFICANT WEATHER AND/OR OBSTRUCTIONS TO VISIBILITY.

WAZ505-507>509-280100-
SEATTLE, TACOMA, EVERETT, AND VICINITY

CITY           SKY/WX    TMP DP  RH WIND       PRES   REMARKS
EVERETT        MOSUNNY   66  48  52 S18G25    29.93F
6HR MIN TEMP:  58; 6HR MAX TEMP:  67;

BOEING FIELD   PTSUNNY   66  48  52 S9        29.95S
6HR MIN TEMP:  62; 6HR MAX TEMP:  69;

RENTON         PTSUNNY   65  47  52 SW13      29.94F
6HR MIN TEMP:  61; 6HR MAX TEMP:  69;

SEATAC AIRPORT PTSUNNY   62  48  60 W9G20     29.97S
6HR MIN TEMP:  59; 6HR MAX TEMP:  71;

JBLM-MCCHORD   CLOUDY    64  53  68 W14       29.95F
6HR MIN TEMP:  60; 6HR MAX TEMP:  69;

PUYALLUP       FAIR      63  54  72 VRB3      29.96F
BREMERTON      MOSUNNY   61  52  72 SW26G35   29.98
6HR MIN TEMP:  61; 6HR MAX TEMP:  66;

JBLM-FT LEWIS  CLOUDY    62  53  72 W16       29.95F
6HR MIN TEMP:  60; 6HR MAX TEMP:  69;

TACOMA NARROWS PTSUNNY   61  49  64 W13G21    29.96S
6HR MIN TEMP:  56; 6HR MAX TEMP:  66;

$$

WAZ001-503-506-510-514-515-280100-
NORTH INTERIOR

CITY           SKY/WX    TMP DP  RH WIND       PRES   REMARKS
BELLINGHAM     PTSUNNY   60  50  69 VRB6      29.90F
6HR MIN TEMP:  51; 6HR MAX TEMP:  63;

FRIDAY HARBOR  CLOUDY    59  49  69 SE3       29.91F
6HR MIN TEMP:  52; 6HR MAX TEMP:  60;

EASTSOUND      MOSUNNY   61  52  72 S3        29.88F
PORT ANGELES   MOSUNNY   59  51  75 NW15G21   29.92F
6HR MIN TEMP:  56; 6HR MAX TEMP:  62;

NAS WHIDBEY    PTSUNNY   61  49  64 NW5       29.92F
6HR MIN TEMP:  56; 6HR MAX TEMP:  64;

ARLINGTON      MOSUNNY   68  52  56 S15       29.91F
6HR MIN TEMP:  55; 6HR MAX TEMP:  70;

BURLINGTON     PTSUNNY   66  52  59 MISG      29.90S
$$

WAZ020-022-039-040-504-511-512-280100-
SOUTHWEST INTERIOR

CITY           SKY/WX    TMP DP  RH WIND       PRES   REMARKS
SHELTON        PTSUNNY   57  49  74 SW15G22   29.97F
6HR MIN TEMP:  57; 6HR MAX TEMP:  62;

OLYMPIA        PTSUNNY   63  48  58 W13       29.97S
6HR MIN TEMP:  57; 6HR MAX TEMP:  67;

CHEHALIS       FAIR      66  52  59 W8G15     29.98S
KELSO          CLOUDY    61  50  67 N5        30.04F
6HR MIN TEMP:  55; 6HR MAX TEMP:  64;

VANCOUVER      PTSUNNY   67  50  54 SW8       29.99F
6HR MIN TEMP:  57; 6HR MAX TEMP:  70;

SCAPPOOSE, OR  PTSUNNY   68  54  60 VRB6      29.98S
6HR MIN TEMP:  57; 6HR MAX TEMP:  71;

PORTLAND, OR   PTSUNNY   69  51  52 S14       30.00S
6HR MIN TEMP:  58; 6HR MAX TEMP:  71;

$$

WAZ021-516-517-280100-
WASHINGTON COAST

CITY           SKY/WX    TMP DP  RH WIND       PRES   REMARKS
FORKS          LGT RAIN  52  52 100 S9G17     29.95F VSB 1/2
6HR MIN TEMP:  52; 6HR MAX TEMP:  58; 6HR PCP:  0.04;

HOQUIAM        CLOUDY    54  52  93 S13       30.01F FOG
6HR MIN TEMP:  52; 6HR MAX TEMP:  57;

ASTORIA, OR    CLOUDY    56  51  84 S12G24    30.02F
6HR MIN TEMP:  53; 6HR MAX TEMP:  59;

$$

WAZ019-023-024-040-518-519-280100-
CASCADE MOUNTAINS AND COLUMBIA GORGE

CITY           SKY/WX    TMP DP  RH WIND       PRES   REMARKS
TROUTDALE, OR  MOSUNNY   68  52  56 SW16      29.99S
6HR MIN TEMP:  62; 6HR MAX TEMP:  72;

THE DALLES, OR MOSUNNY   73  49  42 N9        29.89F
6HR MIN TEMP:  60; 6HR MAX TEMP:  78;

$$

WAZ026-027-041>044-520-521-280100-
EAST SLOPES

CITY           SKY/WX    TMP DP  RH WIND       PRES   REMARKS
OMAK           CLOUDY    68  49  50 S12       29.89F
6HR MIN TEMP:  55; 6HR MAX TEMP:  70;

WENATCHEE      PTSUNNY   71  49  45 E5        29.89F
6HR MIN TEMP:  59; 6HR MAX TEMP:  71;

ELLENSBURG     MOSUNNY   72  49  44 CALM      29.90F
6HR MIN TEMP:  59; 6HR MAX TEMP:  74;

YAKIMA         MOSUNNY   78  37  22 SW10G23   29.87F
6HR MIN TEMP:  63; 6HR MAX TEMP:  80;

$$

WAZ028-034-035-280100-
COLUMBIA BASIN

CITY           SKY/WX    TMP DP  RH WIND       PRES   REMARKS
EPHRATA        MOSUNNY   70  51  51 CALM      29.90F
6HR MIN TEMP:  59; 6HR MAX TEMP:  71;

MOSES LAKE     SUNNY     71  50  47 S5        29.91F
6HR MIN TEMP:  59; 6HR MAX TEMP:  71;

PASCO          SUNNY     79  53  40 E3        29.88F
6HR MIN TEMP:  60; 6HR MAX TEMP:  79;

HERMISTON, OR  SUNNY     77  50  38 CALM      29.88F
6HR MIN TEMP:  61; 6HR MAX TEMP:  77;

$$

WAZ036>038-280100-
NORTHEAST WASHINGTON

CITY           SKY/WX    TMP DP  RH WIND       PRES   REMARKS
SPOKANE GEIGER MOSUNNY   70  48  45 SW14      29.94F
6HR MIN TEMP:  47; 6HR MAX TEMP:  70;

SPOKANE FELTS  MOSUNNY   72  47  40 SW12      29.93F
6HR MIN TEMP:  52; 6HR MAX TEMP:  74;

FAIRCHILD AFB  SUNNY     68  50  51 SW12      29.94F
6HR MIN TEMP:  48; 6HR MAX TEMP:  69;

COEURDALENE,ID MOSUNNY   72  50  46 W12       29.93F
6HR MIN TEMP:  50; 6HR MAX TEMP:  72;

DEER PARK      SUNNY     70  51  51 SE8       29.93F
6HR MIN TEMP:  55; 6HR MAX TEMP:  70;

$$

WAZ029>033-280100-
SOUTHEAST WASHINGTON

CITY           SKY/WX    TMP DP  RH WIND       PRES   REMARKS
PULLMAN        SUNNY     71  48  43 SW5       29.97F
6HR MIN TEMP:  61; 6HR MAX TEMP:  72;

LEWISTON, ID   SUNNY     75  51  43 CALM      29.91F
6HR MIN TEMP:  63; 6HR MAX TEMP:  75;

WALLA WALLA    SUNNY     77  51  40 N3        29.91F
6HR MIN TEMP:  63; 6HR MAX TEMP:  77;

PENDLETON, OR  SUNNY     73  51  46 NW9       29.91F
6HR MIN TEMP:  64; 6HR MAX TEMP:  73;

$$



USA.gov is the U.S. government's official web portal to all federal, state and local government web resources and services.